This demonstration page uses our WeatherBlox Daily Observations layout. Learn more.

Left ArrowRight Arrow

Hourly Observations for November 1, 2020

Temp ( °F °C ) Dew Point ( °F °C ) Humidity (%) Winds ( mph kmh ) Pressure ( in mb ) Visibility ( mi km ) Precip ( " mm )
12:15 am 00:15 Clear 36 2.1 27 -2.7 71 71 W 5 7 30.47 1032 10 16 N/A
12:35 am 00:35 Clear 36 2.4 27 -2.6 70 70 W 8 13 30.47 1032 10 16 N/A
12:55 am 00:55 Clear 36 2.3 27 -2.9 69 69 WNW 6 9 30.47 1032 10 16 N/A
1:15 am 01:15 Clear 36 2.2 26 -3.5 66 66 NW 6 9 30.48 1032 10 16 N/A
1:35 am 01:35 Clear 36 2.3 26 -3.5 66 66 NNW 8 13 30.47 1032 10 16 N/A
1:55 am 01:55 Clear 37 2.6 25 -4 62 62 WNW 5 7 30.47 1032 10 16 N/A
1:15 am 01:15 Clear 34 1.1 25 -4.1 69 69 NW 7 11 30.50 1033 10 16 N/A
1:35 am 01:35 Clear 35 1.5 24 -4.5 65 65 N 9 15 30.49 1033 10 16 N/A
1:55 am 01:55 Clear 36 2 24 -4.6 62 62 NNW 7 11 30.50 1033 10 16 N/A
2:15 am 02:15 Clear 33 0.3 23 -5 68 68 NW 8 13 30.53 1034 10 16 N/A
2:35 am 02:35 Clear 32 0.1 23 -5.2 68 68 NNW 7 11 30.55 1034 10 16 N/A
2:55 am 02:55 Clear 32 -0.2 22 -5.3 69 69 WNW 6 9 30.55 1034 10 16 N/A
3:15 am 03:15 Clear 31 -0.3 23 -5 71 71 NW 7 11 30.56 1035 10 16 N/A
3:35 am 03:35 Clear 32 -0.1 22 -5.3 68 68 NNW 8 13 30.56 1035 10 16 N/A
3:55 am 03:55 Clear 32 undefined 22 -5.5 67 67 NW 6 9 30.57 1035 10 16 N/A
4:15 am 04:15 Clear 31 -0.3 22 -5.6 68 68 NNW 7 11 30.56 1035 10 16 N/A
4:35 am 04:35 Clear 30 -1 22 -5.7 71 71 NNW 7 11 30.57 1035 10 16 N/A
4:55 am 04:55 Clear 32 -0.2 22 -5.3 69 69 NW 6 9 30.56 1035 10 16 N/A
5:15 am 05:15 Clear 30 -1 23 -5.2 73 73 NNW 5 7 30.58 1035 10 16 N/A
5:35 am 05:35 Clear 29 -1.7 22 -5.5 76 76 NW 5 7 30.58 1036 10 16 N/A
5:55 am 05:55 Clear 27 -2.7 22 -5.7 80 80 WNW 6 9 30.60 1036 10 16 N/A
6:15 am 06:15 Clear 27 -2.7 22 -5.6 81 81 WNW 6 9 30.61 1037 10 16 N/A
6:35 am 06:35 Clear 26 -3.1 21 -6 81 81 N N/A 30.63 1037 10 16 N/A
6:55 am 06:55 Clear 27 -2.8 21 -6.1 78 78 WNW 3 6 30.62 1037 10 16 N/A
7:15 am 07:15 Sunny 27 -3 20 -6.5 77 77 N N/A 30.64 1037 10 16 N/A
7:35 am 07:35 Sunny 27 -3 20 -6.4 78 78 N N/A 30.64 1037 10 16 N/A
7:55 am 07:55 Sunny 28 -2.5 22 -5.5 80 80 W 3 6 30.63 1037 10 16 N/A
8:15 am 08:15 Sunny 31 -0.6 24 -4.3 76 76 W 3 6 30.63 1037 10 16 N/A
8:35 am 08:35 Sunny 34 1 25 -4.1 69 69 N N/A 30.63 1037 10 16 N/A
8:55 am 08:55 Sunny 36 2.1 25 -4.1 64 64 N N/A 30.62 1037 10 16 N/A
9:15 am 09:15 Sunny 38 3.4 24 -4.3 57 57 NNE 3 6 30.61 1037 10 16 N/A
9:35 am 09:35 Sunny 40 4.5 24 -4.6 52 52 N N/A 30.60 1036 10 16 N/A
9:55 am 09:55 Sunny 41 5.2 23 -5 48 48 N N/A 30.61 1036 10 16 N/A
10:15 am 10:15 Sunny 42 5.7 23 -5.1 46 46 N N/A 30.60 1036 10 16 N/A
10:35 am 10:35 Sunny 43 6.2 22 -5.5 43 43 N N/A 30.60 1036 10 16 N/A
10:55 am 10:55 Sunny 44 6.8 21 -6 40 40 N N/A 30.58 1036 10 16 N/A
11:15 am 11:15 Sunny 45 7.1 20 -6.4 38 38 N N/A 30.58 1036 10 16 N/A
11:35 am 11:35 Sunny 46 7.6 20 -6.4 37 37 N N/A 30.57 1035 10 16 N/A
11:55 am 11:55 Sunny 47 8.1 20 -6.5 35 35 E 3 6 30.56 1035 10 16 N/A
12:15 pm 12:15 Sunny 48 9.1 20 -6.9 32 32 N N/A 30.55 1035 10 16 N/A
12:35 pm 12:35 Sunny 49 9.6 20 -6.7 31 31 N N/A 30.54 1034 10 16 N/A
12:55 pm 12:55 Sunny 50 10.2 20 -6.4 31 31 SE 3 6 30.51 1033 10 16 N/A
1:15 pm 13:15 Sunny 51 10.3 19 -7 29 29 SSE 6 9 30.50 1033 10 16 N/A
1:35 pm 13:35 Sunny 52 11 20 -6.9 28 28 SSE 7 11 30.47 1032 10 16 N/A
1:55 pm 13:55 Sunny 53 11.6 20 -6.9 27 27 S 7 11 30.46 1031 10 16 N/A
2:15 pm 14:15 Sunny 53 11.8 19 -7.4 26 26 S 9 15 30.45 1031 10 16 N/A
2:35 pm 14:35 Sunny 54 12 19 -7.4 25 25 SSE 6 9 30.44 1031 10 16 N/A
2:55 pm 14:55 Sunny 54 12.2 22 -5.7 28 28 S 10 17 30.43 1031 10 16 N/A
3:15 pm 15:15 Sunny 54 12.1 20 -6.9 26 26 SSE 8 13 30.44 1031 10 16 N/A
3:35 pm 15:35 Sunny 54 12.2 19 -7.3 25 25 S 9 15 30.44 1031 10 16 N/A
3:55 pm 15:55 Sunny 55 12.5 19 -7.1 25 25 SSW 8 13 30.44 1031 10 16 N/A
4:15 pm 16:15 Sunny 54 12.4 20 -6.5 26 26 S 7 11 30.44 1031 10 16 N/A
4:35 pm 16:35 Sunny 54 12.1 20 -6.6 27 27 S 8 13 30.43 1031 10 16 N/A
4:55 pm 16:55 Sunny 53 11.5 21 -6.1 29 29 S 6 9 30.43 1030 10 16 N/A
5:15 pm 17:15 Sunny 51 10.3 22 -5.5 33 33 S 6 9 30.44 1031 10 16 N/A
5:35 pm 17:35 Clear 47 8.5 22 -5.6 37 37 S 3 6 30.46 1031 10 16 N/A
5:55 pm 17:55 Clear 45 7.4 21 -6.1 38 38 SSE 6 9 30.47 1032 10 16 N/A
6:15 pm 18:15 Clear 43 6.1 21 -6.3 41 41 SSE 6 9 30.48 1032 10 16 N/A
6:35 pm 18:35 Clear 42 5.7 20 -6.6 41 41 SSE 6 9 30.47 1032 10 16 N/A
6:55 pm 18:55 Clear 40 4.4 20 -6.7 45 45 SSE 6 9 30.48 1032 10 16 N/A
7:15 pm 19:15 Clear 40 4.3 20 -6.5 46 46 SSE 7 11 30.50 1033 10 16 N/A
7:35 pm 19:35 Clear 42 5.3 20 -6.4 43 43 SSE 8 13 30.49 1032 10 16 N/A
7:55 pm 19:55 Clear 42 5.8 21 -6.2 42 42 SSE 7 11 30.48 1032 10 16 N/A
8:15 pm 20:15 Clear 41 4.8 21 -6 46 46 SSE 6 9 30.48 1032 10 16 N/A
8:35 pm 20:35 Clear 38 3.3 21 -6 51 51 SSE 5 7 30.49 1033 10 16 N/A
8:55 pm 20:55 Clear 39 4.1 21 -6 48 48 S 8 13 30.49 1032 10 16 N/A
9:15 pm 21:15 Clear 38 3.3 21 -6 51 51 S 9 15 30.47 1032 10 16 N/A
9:35 pm 21:35 Clear 37 2.9 21 -6 52 52 S 9 15 30.49 1032 10 16 N/A
9:55 pm 21:55 Clear 39 4 21 -6.2 48 48 S 9 15 30.48 1032 10 16 N/A
10:15 pm 22:15 Clear 39 3.8 20 -6.4 48 48 S 7 11 30.48 1032 10 16 N/A
10:35 pm 22:35 Clear 37 2.7 21 -6.3 52 52 S 7 11 30.48 1032 10 16 N/A
10:55 pm 22:55 Clear 38 3.5 20 -6.4 49 49 S 7 11 30.47 1032 10 16 N/A
11:15 pm 23:15 Clear 38 3.6 21 -6.1 49 49 S 9 15 30.46 1032 10 16 N/A
11:35 pm 23:35 Clear 38 3.5 21 -6 50 50 S 6 9 30.46 1032 10 16 N/A
11:55 pm 23:55 Clear 38 3.3 22 -5.8 52 52 S 9 15 30.46 1032 10 16 N/A

Powered by AerisWeather